This is the latest recevied weather packets stored in our database for station/object KG5CK-1. If no packets are shown the sender has not sent any weather packets the latest 10 day(s).
| Time | Temp. | Humidity | Pressure | Rain* | Wind** | Luminosity | Snow |
|---|---|---|---|---|---|---|---|
| 1778342042 | 24.44° C | 81% | 1006.8 hPa | 0 mm | 1.34 m/s, 24° | - | - |
| 1778341983 | 24.44° C | 81% | 1006.8 hPa | 0 mm | 1.34 m/s, 24° | - | - |
| 1778341923 | 24.44° C | 81% | 1006.8 hPa | 0 mm | 1.34 m/s, 24° | - | - |
| 1778341863 | 24.44° C | 81% | 1006.8 hPa | 0 mm | 1.34 m/s, 24° | - | - |
| 1778341805 | 24.44° C | 82% | 1006.7 hPa | 0 mm | 2.24 m/s, 9° | - | - |
| 1778341742 | 24.44° C | 82% | 1006.7 hPa | 0 mm | 2.24 m/s, 9° | - | - |
| 1778341683 | 24.44° C | 82% | 1006.7 hPa | 0 mm | 2.24 m/s, 9° | - | - |
| 1778341623 | 24.44° C | 82% | 1006.7 hPa | 0 mm | 2.24 m/s, 9° | - | - |
| 1778341563 | 24.44° C | 82% | 1006.7 hPa | 0 mm | 2.24 m/s, 9° | - | - |
| 1778341502 | 24.44° C | 83% | 1006.9 hPa | 0 mm | 2.68 m/s, 341° | - | - |
| 1778341443 | 24.44° C | 83% | 1006.9 hPa | 0 mm | 2.68 m/s, 341° | - | - |
| 1778341383 | 24.44° C | 83% | 1006.9 hPa | 0 mm | 2.68 m/s, 341° | - | - |
| 1778341322 | 24.44° C | 83% | 1006.9 hPa | 0 mm | 2.68 m/s, 341° | - | - |
| 1778341262 | 24.44° C | 83% | 1006.9 hPa | 0 mm | 2.68 m/s, 341° | - | - |
| 1778341203 | 24.44° C | 82% | 1006.7 hPa | 0 mm | 0.89 m/s, 44° | - | - |
| 1778341143 | 24.44° C | 82% | 1006.7 hPa | 0 mm | 0.89 m/s, 44° | - | - |
| 1778341083 | 24.44° C | 82% | 1006.7 hPa | 0 mm | 0.89 m/s, 44° | - | - |
| 1778341022 | 24.44° C | 82% | 1006.7 hPa | 0 mm | 0.89 m/s, 44° | - | - |
| 1778340963 | 24.44° C | 82% | 1006.7 hPa | 0 mm | 0.89 m/s, 44° | - | - |
| 1778340903 | 23.89° C | 83% | 1006.5 hPa | 0 mm | 1.34 m/s, 29° | - | - |
| 1778340842 | 23.89° C | 83% | 1006.5 hPa | 0 mm | 1.34 m/s, 29° | - | - |
| 1778340783 | 23.89° C | 83% | 1006.5 hPa | 0 mm | 1.34 m/s, 29° | - | - |
| 1778340723 | 23.89° C | 83% | 1006.5 hPa | 0 mm | 1.34 m/s, 29° | - | - |
| 1778340663 | 23.89° C | 83% | 1006.5 hPa | 0 mm | 1.34 m/s, 29° | - | - |
| 1778340602 | 23.89° C | 84% | 1006.4 hPa | 0 mm | 1.79 m/s, 348° | - | - |
* Rain latest hour (hover to see other rain measurements)
** Current wind speed in m/s (hover to see current wind gust speed)